Regional Weather Roundup
Issued by NWS Huntsville, AL

Home | Current Version | Previous Version | Text Only | Print | Product List | Glossary On
Versions: 1 2 3 4 5 6 7 8 9 10 11 12 13 14 15 16 17 18 19 20 21 22 23 24 25 26 27 28
000
ASUS44 KHUN 231310
RWRHUN

WEATHER ROUNDUP FOR THE TENNESSEE VALLEY
NATIONAL WEATHER SERVICE HUNTSVILLE AL
800 AM CDT THU OCT 23 2014

ALZ001>004-231400-
NORTHWEST ALABAMA

CITY           SKY/WX    TMP DP  RH WIND       PRES   REMARKS
COURTLAND HCN    N/A     43 N/A N/A NE3         N/A
RUSSELLVILLE     N/A     41 N/A N/A MISG        N/A
SHOALS AIRPORT SUNNY     46  41  82 E7        30.19S
SHOALS TVA RES   N/A     45 N/A N/A MISG        N/A
$$

ALZ005>007-016-231400-
NORTH CENTRAL ALABAMA

CITY           SKY/WX    TMP DP  RH WIND       PRES   REMARKS
CULLMAN AG STN   N/A     41 N/A N/A CALM        N/A
DECATUR AP     SUNNY     43  40  89 N5        30.18S
HUNTSVILLE AP  MOSUNNY   46  41  82 NE6       30.17S
HUN NWS/UAH      N/A     43  39  85 NE6         N/A
MERIDIANVILLE  SUNNY     43  36  75 CALM      30.18S
REDSTONE ARSN  SUNNY     43  39  87 CALM      30.18
VINEMONT AP    FAIR      38  38  99 NE3       30.17R
$$

ALZ008>010-231400-
NORTHEAST ALABAMA

CITY           SKY/WX    TMP DP  RH WIND       PRES   REMARKS
ALBERTVILLE    SUNNY     45  43  93 NE5       30.15S
FORT PAYNE     SUNNY     36  34  93 CALM      30.17R
SCOTTSBORO AP  SUNNY     45  39  81 NE8       30.20R
SCOTTSBORO HCN   N/A     43 N/A N/A MISG        N/A
VALLEY HEAD      N/A     37 N/A N/A MISG        N/A
$$

TNZ076-096-097-231400-
SOUTHEASTERN MIDDLE TENNESSEE

CITY           SKY/WX    TMP DP  RH WIND       PRES   REMARKS
TULLAHOMA      SUNNY     41  37  87 NE3       30.20R
WINCHESTER     SUNNY     36  34  93 CALM      30.19S
$$

...SURROUNDING SITES...

CITY           SKY/WX    TMP DP  RH WIND       PRES   REMARKS
ATLANTA        MOSUNNY   45  41  86 NW7       30.15R
ANNISTON       SUNNY     44  40  85 NE5       30.18R
BIRMINGHAM     SUNNY     46  40  79 VRB7      30.17S
CHATTANOOGA    SUNNY     50  41  71 N9        30.20S
CORINTH        FAIR      37  37 100 W5        30.18R FOG     WCI  34
DALTON         SUNNY     43  41  93 N12       30.17S
GADSDEN        SUNNY     43  37  81 CALM      30.17S
GOLDEN TRNGL   MOSUNNY   39  36  87 NW6       30.17R WCI  35
HALEYVILLE     FAIR      44  42  93 VRB6      30.17S FOG
JACKSON TN     CLEAR     43  40  89 CALM      30.19S
MEMPHIS        PTCLDY    47  42  83 CALM      30.21R
NASHVILLE      MOSUNNY   45  41  86 CALM      30.23S
OXFORD MS      FAIR      39  39 100 CALM      30.21R
ROME           SUNNY     41  40  96 CALM      30.17S
SAVANNAH       CLEAR     37  37 100 CALM      30.18S
TUPELO         CLEAR     44  41  89 NE7       30.17R
TUSCALOOSA     MOSUNNY   45  42  89 CALM      30.16F
$$

...GULF COAST WEATHER...

CITY           SKY/WX    TMP DP  RH WIND       PRES   REMARKS
GULFPORT       SUNNY     52  44  74 NE6       30.10R
PASCAGOULA     SUNNY     49  45  86 N6        30.10R
MOBILE         MOSUNNY   50  45  83 NE9       30.11R
GULF SHORES    SUNNY     50  45  84 NE7       30.08S
PENSACOLA      MOSUNNY   54  49  83 NE8       30.08R
DESTIN         SUNNY     58  49  72 VRB6      30.09R
PANAMA CITY    SUNNY     56  49  75 NE5       30.09R
APPALACHICOLA  SUNNY     58  49  72 NE7       30.06R
$$




USA.gov is the U.S. government's official web portal to all federal, state and local government web resources and services.